Location: Newark
(47.4167°N, 6.3667°E)
Time: 01:26:27
(UTC+00:00)

N. Korean satellite - Visible Passes

Search period start: 18 October 2019 00:00
Search period end: 28 October 2019 00:00
Orbit: 455 x 508 km, 97.2° (Epoch: 16 October)

Date Brightness Start Highest point End Pass type
(mag) Time Alt. Az. Time Alt. Az. Time Alt. Az.
18 Oct 10.4 17:53:33 10° WSW 17:54:37 11° W 17:55:40 10° WNW visible
19 Oct 8.0 05:13:48 10° NNE 05:17:16 44° E 05:20:46 10° S visible
19 Oct 9.5 17:26:24 10° SW 17:29:05 21° W 17:31:49 10° NW visible
20 Oct 9.4 04:48:57 10° NE 04:51:52 23° E 04:54:47 10° SSE visible
21 Oct 10.3 04:24:49 10° ENE 04:26:21 12° E 04:27:53 10° ESE visible
22 Oct 6.9 05:31:09 10° NNE 05:34:48 74° ESE 05:38:27 10° S visible
22 Oct 10.1 17:44:53 10° WSW 17:46:42 14° W 17:48:32 10° WNW visible
23 Oct 8.5 05:06:03 10° NNE 05:09:26 36° E 05:12:50 10° SSE visible
23 Oct 9.1 17:18:15 10° SSW 17:21:11 26° W 17:24:10 10° NW visible
24 Oct 9.7 04:41:18 10° NE 04:43:59 19° E 04:46:40 10° SE visible
25 Oct 10.6 04:18:06 10° E 04:18:26 10° E 04:18:47 10° E visible
26 Oct 7.3 05:23:18 10° NNE 05:26:57 59° E 05:30:35 10° S visible
26 Oct 9.9 17:36:26 10° SW 17:38:45 17° W 17:41:05 10° NW visible
27 Oct 8.9 04:58:16 10° NNE 05:01:32 30° E 05:04:50 10° SSE visible
27 Oct 8.6 17:10:07 10° SSW 17:13:15 32° W 17:16:27 10° NNW visible
